[Iaude] MPEC J284: 2024 JD15 [a=2.06,e=0.67,i=7.4,H=26.9]
    mpec at cfa.harvard.edu 
    mpec at cfa.harvard.edu
       
    Sun May 12 13:21:36 EDT 2024
    
    
  
M.P.E.C. 2024-J284                                 Issued 2024 May 12, 17:19 UT
     The Minor Planet Electronic Circulars contain information on unusual
         minor planets, routine data on comets and natural satellites,
         and occasional editorial announcements.  They are published
    on behalf of Division F of the International Astronomical Union by the
          Minor Planet Center, Smithsonian Astrophysical Observatory,
                          Cambridge, MA 02138, U.S.A.
			  
             Prepared using the Tamkin Foundation Computer Network
                              MPC at CFA.HARVARD.EDU
            URL https://www.minorplanetcenter.net/    ISSN 1523-6714
                                   2024 JD15                                    
Observations:
     K24J15D* C2024 05 09.37356815 03 48.967-16 07 23.56         21.06wXEJ284F51
     K24J15D  C2024 05 09.38466415 03 46.195-16 08 29.68         21.22wXEJ284F51
     K24J15D  C2024 05 09.39574715 03 43.417-16 09 35.36         21.08wXEJ284F51
     K24J15D  C2024 05 09.40682915 03 40.609-16 10 41.94         21.18wXEJ284F51
     K24J15D  C2024 05 09.51534215 03 12.594-16 21 34.19         20.96GVEJ284F51
     K24J15D  C2024 05 09.51598715 03 12.412-16 21 38.54         21.12GVEJ284F51
     K24J15D KC2024 05 09.53931715 03 11.525-16 21 37.51         21.0 GVEJ284474
     K24J15D KC2024 05 09.54238415 03 10.805-16 21 56.66         21.3 GVEJ284474
     K24J15D KC2024 05 09.54544815 03 09.991-16 22 15.02         20.4 GVEJ284474
     K24J15D KC2024 05 09.54851215 03 09.245-16 22 34.10         21.5 GVEJ284474
     K24J15D KB2024 05 09.89738 15 01 55.07 -17 04 34.7                ZEJ284106
     K24J15D KB2024 05 09.90485 15 01 52.92 -17 05 28.5                ZEJ284106
     K24J15D KB2024 05 09.91223 15 01 50.66 -17 06 22.6                ZEJ284106
     K24J15D KB2024 05 09.91929 15 01 48.70 -17 07 13.8                ZEJ284106
     K24J15D KC2024 05 10.28366715 00 12.820-17 53 48.10         20.27GVEJ284I52
     K24J15D KC2024 05 10.29214415 00 09.820-17 54 59.30               VEJ284I52
     K24J15D KC2024 05 10.29601615 00 08.510-17 55 31.80         20.85GVEJ284I52
     K24J15D pC2024 05 11.89494714 48 34.03 -23 26 00.6          20.3 GVEJ284L01
     K24J15D pC2024 05 11.89692214 48 32.58 -23 26 35.8          20.4 GVEJ284L01
     K24J15D pC2024 05 11.89939214 48 30.75 -23 27 22.2          19.9 GVEJ284L01
Observer details:
106 Crni Vrh.  Observer H. Mikuz.  0.60-m f/3.3 reflector + CMO.
474 Mount John Observatory, Lake Tekapo.  Observers A. C. Gilmore, P. M.
    Kilmartin.  Measurer P. M. Kilmartin.  1.0-m f/7.7 Reflector + CCD.
F51 Pan-STARRS 1, Haleakala.  Observers J. Herman, T. Lowe, P. Minguez, A.
    Schultz, I. Smith.  Measurers K. Chambers, T. de Boer, J. Fairlamb, H.
    Gao, M. Huber, C.-C. Lin, E. Magnier, Y. Ramanjooloo, R. Wainscoat, R.
    Weryk.  1.8-m Ritchey-Chretien + CCD.
I52 Steward Observatory, Mt. Lemmon Station.  Observer H. Groeller.  Measurers
    T. Beuden, V. F. Carvajal, D. Fay, J. B. Fazekas, D. C. Fuls, A. R. Gibbs,
    A. D. Grauer, H. Groeller, J. K. Hogan, R. A. Kowalski, S. M. Larson, G.
    J. Leonard, D. Rankin, R. L. Seaman, F. C. Shelly, K. W. Wierzchos.  1.0-m
    prime focus + CCD.
L01 Visnjan Observatory, Tican.  Observers K. Korlevic, G. Kervina.  Measurer
    K. Korlevic.  1.0-m f/2.9 reflector + CCD.
Orbital elements:
2024 JD15                                                Earth MOID = 0.0111 AU
Epoch 2024 Mar. 31.0 TT = JDT 2460400.5                 Veres                   
M 329.38594              (2000.0)            P               Q                  
n   0.33287462     Peri.  265.37787     +0.69798737     +0.70942440             
a   2.0619696      Node    49.39272     -0.59542411     +0.65067645             
e   0.6742801      Incl.    7.38820     -0.39784891     +0.27080839             
P   2.96           H   26.93          G   0.15           U   8                  
Residuals in seconds of arc
240509 F51  0.0   0.2-    240509 474  0.3+  0.4-    240510 I52  0.9+  0.3+
240509 F51  0.0   0.2-    240509 474  0.3-  0.2+    240510 I52  0.3-  0.2-
240509 F51  0.2+  0.3+    240509 474  0.2+  0.1+    240510 I52  0.0   0.4-
240509 F51  0.3+  0.1-    240509 106  2.8+  0.1+    240511 L01  0.3-  0.5-
240509 F51  0.5+  0.4+    240509 106  2.4+  0.1+    240511 L01  0.0   0.7+
240509 F51  0.3+  0.1-    240509 106  0.2+  0.7-    240511 L01  0.3+  0.2-
240509 474  0.6-  0.2-    240509 106  1.1+  0.9-
Ephemeris:
2024 JD15                a,e,i = 2.06, 0.67, 7                   q = 0.6716
Date    TT    R. A. (2000) Decl.     Delta      r    Elong.  Phase     V
2024 04 12    15 13 22.4 -08 57 29   0.3994  1.3693   152.6    19.7    26.6
...
2024 04 27    15 15 15.3 -09 55 30   0.2073  1.2083   165.5    12.0    24.6
...
2024 05 05    15 11 37.2 -12 05 52   0.1131  1.1209   173.1     6.2    22.9
...
2024 05 11    14 56 12.6 -19 47 20   0.04553 1.0554   175.8     4.0    20.7
2024 05 12    14 47 18.0 -23 54 54   0.03471 1.0445   171.1     8.6    20.3
2024 05 13    14 28 55.6 -31 33 08   0.02433 1.0337   162.5    17.1    19.8
...
2024 05 19    03 44 05.9 -05 36 23   0.04730 0.9691    25.4   153.4    29.4
...
2024 05 27    03 29 24.4 +03 00 28   0.1380  0.8862    21.5   155.2    31.9
...
2024 06 11    03 31 16.4 +07 07 40   0.3247  0.7523    30.1   137.4    30.4
M. P. C. Staff               (C) Copyright 2024 MPC           M.P.E.C. 2024-J284
    
    
More information about the Iaude
mailing list